Theta_e
348 349 349 350 350 350 352 352 353 354 354 356 356 356 356 354 355 355 355 355 354 353 353 353 353 352 350 350 350 351 351 351 351 351 351 352 353 354 354 355 356 356 356 355 354 354 354 354 355 355 355 357 357 356 356 356 356 357 356 357 357 355 352 347 347 346 344 344 343 343 345 344 346 348 346 343 343 344 346 348 348 348 348 349 349
348 350 350 349 350 350 351 352 354 355 356 356 357 357 357 355 354 356 355 355 355 354 353 353 353 352 350 350 350 351 351 351 351 351 351 353 354 355 355 355 356 357 357 357 357 355 355 355 356 357 357 358 358 357 356 356 356 357 357 357 356 354 350 348 349 347 343 344 344 343 344 344 346 345 344 342 342 343 344 345 347 347 346 347 349
347 348 349 348 349 350 351 353 353 355 356 356 356 358 357 356 355 356 355 355 356 355 354 353 353 353 351 351 350 350 351 351 351 352 353 353 354 355 356 355 356 357 357 357 357 356 355 356 356 357 358 359 359 359 358 356 356 357 356 357 357 353 347 347 350 350 346 344 345 345 344 345 346 344 342 341 342 343 343 343 345 345 345 347 348
346 345 347 347 348 349 350 352 352 354 355 356 356 357 357 357 357 357 355 355 356 355 355 355 354 354 353 352 351 351 352 352 353 353 354 354 355 355 356 355 356 356 357 357 357 356 356 356 356 357 359 359 359 361 359 357 357 357 357 358 358 353 347 346 349 351 351 349 346 345 345 345 345 344 342 341 340 342 343 343 345 345 344 347 347
345 343 345 347 348 349 350 351 352 352 355 355 355 356 356 357 358 358 356 355 356 356 356 357 355 354 354 353 353 353 353 353 353 353 354 354 354 354 355 355 356 357 357 357 357 356 357 356 356 357 358 358 358 358 358 357 357 357 357 359 358 355 350 346 347 351 353 354 351 347 348 347 346 344 343 344 342 341 341 342 344 344 343 346 346
345 344 344 347 347 348 351 352 352 352 353 354 353 355 355 357 358 358 358 357 356 357 357 357 356 355 354 354 353 353 353 353 353 352 352 352 353 353 354 354 356 356 356 357 357 357 357 356 356 356 356 357 357 357 357 357 357 356 357 359 358 357 355 348 346 349 353 354 351 350 350 349 349 348 345 345 343 341 341 341 342 342 342 344 346
344 344 345 347 347 347 351 351 352 351 352 353 353 354 355 357 359 359 359 358 357 358 357 357 357 356 355 355 353 352 352 352 353 352 351 352 352 353 354 354 355 355 355 356 357 357 357 357 356 356 355 356 356 357 357 356 357 357 358 359 359 358 357 352 347 347 350 350 348 349 349 350 352 351 349 347 345 343 343 342 343 343 341 342 343
343 343 344 346 346 347 349 351 351 350 351 353 352 353 356 358 359 359 359 359 358 358 357 357 358 358 357 356 355 352 351 352 353 353 353 353 353 353 353 353 354 355 355 356 357 357 357 357 357 356 356 356 356 356 356 357 359 359 359 360 360 360 357 354 352 348 347 348 349 350 349 351 352 351 352 352 348 345 344 344 343 342 342 342 342
342 342 344 346 347 347 348 349 350 349 350 353 353 354 357 359 359 358 359 359 359 358 357 358 359 358 358 357 356 354 352 353 353 354 354 354 355 355 354 354 354 355 356 356 356 357 357 357 357 357 356 356 355 355 356 357 359 360 361 361 361 361 357 355 354 352 349 349 351 354 352 352 351 350 352 352 348 347 345 344 344 344 343 342 342
342 342 344 345 345 346 347 347 348 348 350 353 353 353 357 359 358 358 358 359 359 359 358 359 358 358 358 357 357 356 356 356 356 356 356 355 356 356 356 355 355 355 356 356 356 357 356 356 357 356 356 356 355 356 356 357 357 359 361 361 361 361 358 355 353 353 354 352 352 355 354 352 352 351 350 348 348 348 346 344 344 344 343 343 344
343 343 345 345 344 345 345 346 348 348 350 354 354 352 355 358 358 358 358 358 360 360 359 359 358 358 358 357 357 358 359 359 359 359 358 357 357 357 357 356 355 355 354 355 355 356 356 356 356 356 356 356 356 356 356 355 355 356 359 361 361 361 359 357 354 353 354 353 352 353 352 351 352 351 350 350 350 349 348 346 344 344 344 344 344
343 344 345 344 344 345 345 346 348 349 352 354 353 352 353 356 357 358 357 357 359 360 359 358 358 358 358 358 357 358 359 358 359 360 359 358 357 358 358 357 357 356 355 354 354 355 356 356 356 356 356 356 356 356 356 355 355 357 359 360 361 360 359 358 357 354 353 353 351 350 350 349 351 351 351 351 351 351 350 348 345 345 345 345 345
344 344 344 344 345 346 346 348 351 353 354 355 352 351 353 355 357 357 357 357 358 359 360 358 358 358 358 358 357 358 359 359 359 359 358 358 357 358 359 358 358 358 356 355 354 354 356 356 356 356 356 356 357 357 357 356 356 358 360 360 360 360 359 358 358 356 354 354 352 351 350 350 350 351 350 350 350 351 351 349 348 347 346 346 347
346 345 344 345 346 348 349 351 353 355 355 354 352 351 353 355 356 357 357 357 357 358 359 359 359 359 358 359 358 358 358 358 357 356 357 357 358 358 358 357 357 358 357 356 355 355 355 356 357 356 357 357 357 357 357 357 357 358 360 359 359 360 359 358 358 357 355 355 354 352 351 350 351 350 350 350 349 350 351 351 352 350 347 346 347
347 346 345 346 349 350 351 352 355 355 355 353 351 353 355 356 357 358 357 357 357 357 358 358 359 359 359 359 359 358 358 357 357 357 357 357 357 357 357 357 356 356 357 357 357 356 355 356 356 356 357 357 357 356 357 357 357 358 359 359 359 360 359 358 358 357 355 354 354 353 352 350 351 351 350 350 350 350 351 352 353 353 351 349 348
347 347 346 346 351 353 352 352 354 355 354 353 353 355 357 357 359 359 357 357 357 357 357 358 358 358 359 360 359 359 358 358 359 359 358 357 356 357 358 358 357 356 358 358 357 357 356 356 356 356 357 358 357 357 356 357 358 359 359 359 358 358 359 359 359 357 355 354 352 353 352 350 351 351 351 351 351 352 352 352 353 353 354 354 351
348 347 346 347 351 353 351 351 352 352 353 353 354 357 358 358 359 358 358 357 357 357 357 356 357 358 358 359 359 359 359 358 358 358 357 357 357 357 356 357 357 357 357 357 358 358 357 356 356 356 357 358 357 357 356 357 359 359 359 360 358 358 360 359 359 358 357 354 353 352 352 351 351 352 351 351 352 354 353 352 353 353 354 355 354
350 349 349 349 351 352 351 350 351 351 352 354 356 358 358 358 357 356 357 357 356 357 356 356 356 356 357 359 358 359 359 358 358 357 357 357 357 356 355 356 356 356 357 357 358 359 358 357 357 358 358 358 359 358 357 357 358 359 359 360 359 359 360 359 359 359 357 355 354 353 352 351 351 352 350 349 352 354 353 352 352 353 354 354 354
351 349 349 350 352 353 351 350 350 351 352 354 355 357 357 357 355 353 355 356 356 354 354 355 355 355 355 356 357 358 358 358 358 358 358 358 357 356 355 356 355 356 358 358 358 358 358 357 358 358 359 359 359 359 358 358 358 359 360 359 359 359 360 359 360 359 357 356 357 356 355 354 353 352 351 350 350 352 352 351 352 353 354 354 355
353 349 348 349 352 353 351 350 350 351 352 353 354 355 355 354 353 352 352 355 355 353 354 355 355 353 353 355 356 357 357 358 359 358 358 358 357 357 356 356 355 355 357 358 358 357 358 358 357 357 358 358 359 359 359 359 359 360 361 359 360 363 362 361 361 359 358 358 359 358 357 356 356 355 353 351 350 350 351 350 351 352 353 353 354
353 350 349 349 351 350 350 350 350 351 352 351 351 352 351 351 351 351 351 353 354 352 354 355 354 353 354 354 355 356 356 357 357 358 357 357 358 357 357 357 356 357 357 357 357 357 358 358 358 358 357 358 360 361 360 360 361 361 361 360 362 364 363 361 362 361 360 359 360 359 358 358 357 356 355 352 350 349 350 350 351 352 352 352 353
354 350 348 348 349 349 348 349 349 351 353 351 350 350 349 349 352 354 354 352 352 351 353 356 355 354 354 354 354 354 355 354 355 357 356 356 357 358 358 357 357 357 357 357 357 357 358 359 358 358 359 359 361 361 360 360 361 362 361 359 359 362 362 361 363 362 360 359 360 359 358 357 356 356 355 354 351 350 349 350 351 351 352 352 353
354 351 349 349 348 347 347 349 350 351 353 352 351 350 350 350 354 357 358 356 353 352 354 357 356 355 355 355 353 352 353 352 352 354 355 355 356 357 358 358 357 357 357 357 357 357 358 359 359 361 362 362 362 361 360 361 361 362 361 360 359 361 362 361 362 362 361 360 360 359 357 356 355 355 356 355 353 353 352 351 352 352 353 353 353
356 354 356 357 355 352 349 349 350 352 354 352 351 351 352 352 355 358 360 359 356 355 358 359 358 357 355 354 354 352 351 350 349 350 352 353 354 355 356 356 356 356 357 357 357 357 360 361 360 362 363 362 362 361 361 361 361 361 361 361 361 360 361 361 360 361 361 361 360 359 357 356 356 357 358 357 356 357 356 356 355 355 355 354 355
355 355 356 356 356 357 356 353 353 353 353 352 351 352 353 354 356 358 360 360 358 358 360 360 360 359 355 354 354 352 350 349 347 347 348 349 350 351 353 353 353 354 356 358 358 358 360 361 360 360 361 362 362 362 362 361 360 360 360 360 361 361 361 360 360 360 360 360 359 359 358 357 357 357 358 358 358 360 359 358 358 358 357 358 358
354 354 354 355 355 356 355 355 356 355 354 353 353 353 353 355 357 358 360 361 359 360 362 361 360 360 358 355 354 352 350 349 348 347 346 347 347 347 349 350 350 352 354 356 358 358 360 361 360 360 361 362 362 362 362 361 360 360 360 360 360 360 360 360 359 359 358 358 359 359 359 359 358 358 357 357 358 360 360 359 361 360 359 360 360
353 353 353 355 355 356 356 355 355 354 351 352 355 355 355 357 358 357 359 360 360 361 362 361 359 360 360 359 357 355 352 350 349 349 347 347 347 346 347 347 347 349 352 353 355 357 358 359 359 359 359 360 361 361 362 362 360 359 359 360 359 358 358 359 358 357 356 356 357 358 359 359 360 360 359 358 359 359 360 360 362 362 361 361 360
353 352 352 353 354 355 357 355 354 352 350 352 356 356 357 358 359 359 359 361 361 361 361 360 358 359 360 360 358 357 356 353 352 352 351 350 349 348 347 347 348 348 349 350 351 353 355 356 357 357 357 357 359 360 361 362 361 359 359 359 359 358 357 357 358 357 356 355 355 356 356 356 358 359 358 357 357 359 359 359 359 360 361 362 360
353 353 354 354 353 355 356 354 353 353 353 353 355 356 357 358 359 359 360 361 361 361 361 360 359 359 360 360 360 359 359 358 356 356 356 355 353 352 351 351 351 351 350 349 349 350 352 354 354 354 355 355 356 358 359 359 359 360 359 358 358 358 357 356 356 357 356 355 355 353 352 353 355 355 354 353 352 352 354 356 357 358 359 360 361
352 352 353 352 353 355 355 353 354 353 353 353 353 353 354 355 357 357 358 359 360 360 360 359 358 359 360 361 361 360 361 362 360 359 358 358 356 355 354 354 354 354 352 352 352 352 352 352 354 354 354 354 354 354 356 356 355 356 357 358 358 358 358 358 357 357 356 355 354 353 352 352 353 352 350 350 350 351 351 353 354 355 357 358 359
350 350 350 350 352 353 353 353 353 352 352 353 353 353 352 353 354 354 355 356 357 358 359 359 359 359 360 360 359 359 360 362 362 361 361 361 360 359 358 357 356 356 355 356 355 354 353 351 351 352 352 352 352 353 355 355 352 350 352 355 357 357 357 358 356 355 355 353 352 352 351 352 354 353 353 354 353 351 350 351 352 352 353 354 356
348 348 348 347 348 349 350 349 348 348 348 349 351 352 352 353 353 353 354 354 354 356 357 357 357 357 357 357 356 355 356 357 358 360 361 361 361 362 362 360 359 358 357 357 355 355 355 353 351 351 349 350 353 354 354 353 351 349 348 351 353 354 354 354 353 353 354 353 352 352 351 350 352 352 354 357 357 354 351 349 350 350 351 351 352
347 347 346 345 345 346 346 346 345 345 346 347 349 350 351 352 353 353 354 353 353 354 354 354 354 353 354 355 354 354 354 353 354 357 359 360 360 361 361 360 358 358 357 357 355 355 356 354 353 353 352 354 355 353 351 350 348 348 347 348 351 353 352 351 352 353 354 355 356 356 355 353 351 352 355 358 361 361 358 355 352 350 350 350 351
346 344 343 343 344 344 343 343 344 344 345 345 346 347 348 349 349 351 352 351 351 352 352 353 352 352 352 352 353 353 352 352 353 354 355 357 357 356 356 356 356 356 356 356 355 354 355 355 355 356 355 355 353 350 348 348 347 348 347 347 350 353 351 351 353 354 354 355 357 357 357 357 356 357 359 361 363 363 363 362 360 358 355 354 354
345 343 341 342 342 342 342 342 342 342 342 343 343 344 343 343 344 346 348 349 350 350 351 351 351 352 353 352 352 353 352 352 352 352 352 353 353 352 353 353 354 354 354 356 355 354 355 355 356 357 355 351 350 349 349 348 348 348 347 347 351 353 351 350 354 356 357 358 358 358 358 357 359 360 361 360 360 360 360 361 362 362 361 359 357
344 341 340 341 340 340 341 340 340 340 340 340 341 341 340 339 341 342 344 345 347 348 349 350 350 351 353 353 353 352 351 351 351 350 349 349 349 350 350 350 350 350 352 355 355 354 355 355 355 356 352 347 347 349 350 349 350 350 348 349 354 356 354 353 355 357 357 357 357 358 358 358 359 360 360 357 353 352 354 358 360 360 361 359 357
342 341 341 340 339 339 339 338 338 338 337 337 338 340 339 339 339 341 341 343 343 344 345 346 347 348 349 349 349 348 348 348 348 347 346 346 346 347 347 346 347 349 351 353 353 352 353 353 353 352 349 344 343 347 348 348 349 350 350 352 356 358 357 356 356 357 357 356 356 356 357 358 358 358 357 354 351 350 353 357 359 359 359 358 357
340 341 340 340 339 339 337 337 337 336 335 335 336 338 339 339 339 339 340 340 341 342 342 343 344 344 345 345 344 343 344 344 344 343 343 344 344 344 345 345 346 348 349 349 350 350 350 349 348 346 344 340 340 342 345 346 348 349 350 353 356 357 356 358 358 357 357 357 356 355 355 355 355 355 354 353 352 352 354 356 358 358 358 358 357
339 340 339 338 338 338 337 337 336 334 335 335 335 336 338 338 339 339 340 340 340 341 341 342 342 343 343 343 342 342 342 341 341 341 342 342 342 343 343 344 344 345 345 345 346 346 345 343 342 341 340 337 336 337 339 341 345 347 349 352 353 353 354 356 356 355 355 357 356 354 353 352 352 352 352 351 351 352 352 354 355 356 358 358 356
338 338 337 336 336 336 336 336 334 333 333 334 335 336 337 337 338 339 340 340 339 339 340 340 340 341 342 342 342 342 342 341 341 342 342 342 341 341 341 340 340 340 340 340 340 341 341 341 340 339 338 335 334 334 335 336 338 341 345 347 348 349 351 352 351 350 352 354 353 351 349 347 347 347 347 347 349 349 350 351 352 354 356 355 354
335 335 334 334 334 334 334 334 333 333 332 332 333 334 335 336 337 338 338 338 337 337 337 337 338 339 339 340 340 340 340 340 340 340 339 338 337 336 336 335 335 334 334 335 335 336 337 338 337 336 335 333 333 333 333 333 334 335 337 339 340 342 345 348 348 347 348 349 348 347 345 342 340 339 339 340 342 344 346 347 348 350 350 351 351
334 333 333 332 333 332 333 333 332 332 332 333 333 333 333 334 335 336 336 336 336 336 336 336 336 337 337 337 337 337 337 337 336 336 335 334 333 332 331 331 331 330 330 332 333 333 334 335 334 333 332 330 330 331 330 330 330 331 332 333 333 333 337 342 344 343 343 343 342 342 340 337 335 335 336 338 339 340 342 343 344 345 346 346 347
333 332 332 331 331 331 331 331 331 330 332 332 333 333 333 334 335 335 335 335 335 335 335 335 335 335 335 334 333 332 332 332 332 332 332 332 331 331 330 330 331 331 330 330 331 332 332 332 332 331 329 327 326 326 326 326 326 326 327 327 327 327 331 336 338 338 339 339 338 338 337 336 336 336 337 339 339 340 340 341 342 343 343 344 346
332 331 331 330 330 331 330 330 330 330 331 332 332 333 333 333 334 334 333 333 334 334 333 333 333 333 333 332 331 329 328 328 328 328 329 330 331 331 331 332 332 332 331 331 332 331 331 331 330 329 328 326 325 324 323 324 324 324 324 324 324 323 324 328 330 332 333 332 331 332 333 334 336 336 337 338 338 338 339 339 340 342 343 343 344
331 331 331 330 330 330 329 329 329 330 330 331 331 332 332 332 333 333 333 332 332 331 331 331 331 331 331 330 329 327 326 327 326 326 327 328 328 329 331 332 332 331 331 332 332 332 331 331 330 329 328 328 327 325 325 324 323 323 323 323 323 322 322 323 324 324 324 322 321 322 324 326 329 333 335 336 336 336 337 337 338 340 341 341 341
329 329 329 329 329 329 328 327 327 328 328 329 330 331 332 331 331 331 331 331 331 330 330 330 330 330 329 328 327 326 326 326 326 325 326 326 324 325 327 329 331 331 331 331 331 331 331 330 330 329 328 328 327 327 326 326 325 324 323 322 321 321 320 320 320 321 320 318 317 316 317 318 320 324 328 331 331 331 332 334 335 336 338 338 337
328 328 327 327 327 327 327 326 326 326 326 327 328 329 330 329 329 329 329 330 331 331 330 330 329 328 328 327 326 325 325 325 325 325 325 325 324 325 327 328 328 329 330 330 330 330 330 330 329 328 328 327 327 326 326 326 326 326 325 323 323 322 321 320 319 320 321 320 318 316 316 317 319 320 324 326 327 327 328 329 330 332 335 335 333
326 326 326 326 327 326 326 326 326 325 325 326 326 327 328 328 328 328 328 329 330 329 329 329 328 328 327 327 326 325 325 325 325 325 325 325 324 325 326 326 327 328 328 328 329 329 329 329 329 328 327 326 326 325 324 322 321 322 323 322 322 322 322 321 318 317 321 323 322 320 320 321 322 323 323 324 325 325 326 326 327 328 330 330 328
325 325 326 326 325 325 325 325 325 325 325 325 325 325 325 325 326 326 327 328 328 328 328 327 327 327 327 326 326 325 325 325 325 325 325 324 324 324 324 323 324 326 327 327 327 327 327 327 327 327 326 326 325 323 320 318 317 317 317 318 317 317 318 318 315 315 320 324 324 323 322 321 321 321 321 321 322 322 323 325 324 324 325 325 324
323 323 324 324 324 324 323 323 323 323 323 323 323 323 323 324 324 325 325 326 327 327 327 326 326 326 326 325 325 325 324 324 324 323 322 322 321 321 321 321 321 322 323 323 324 324 324 324 324 323 323 323 322 319 317 316 316 315 315 315 314 313 314 314 313 317 322 323 322 322 322 320 321 321 321 320 321 321 321 322 322 323 323 322 321
320 321 322 322 322 322 322 321 321 321 321 321 322 323 323 324 324 325 325 325 326 326 326 325 325 326 326 325 325 325 324 324 323 323 322 321 320 319 319 319 320 320 320 320 320 320 320 321 321 320 319 318 317 317 316 316 315 315 314 314 313 313 313 312 313 318 322 322 321 321 321 320 320 321 320 320 320 320 321 321 321 321 321 320 320
Wind_Speed
14 15 14 14 14 13 12 12 12 11 10 11 11 11 11 11 11 11 10 10 10 10 10 10 9 9 9 9 9 9 8 8 8 8 8 8 8 8 8 7 7 7 6 6 5 5 5 5 5 5 4 4 4 4 4 4 4 3 3 3 4 4 4 5 5 4 5 5 5 7 7 7 6 5 5 6 6 6 5 5 4 5 5 4 4
14 14 14 14 14 14 13 12 12 12 11 11 11 11 11 11 12 12 11 10 10 10 10 9 9 8 9 9 9 9 9 8 8 8 8 8 8 8 7 8 8 7 7 6 6 5 5 5 5 4 4 4 4 4 4 4 4 3 3 3 4 5 5 7 6 3 4 6 5 6 8 8 7 5 6 6 6 6 6 5 4 5 5 5 5
13 14 15 15 14 15 14 12 13 12 12 12 12 12 11 11 12 12 11 11 10 9 9 9 8 7 7 7 8 8 8 8 7 8 8 8 8 8 8 8 8 7 7 7 6 6 6 5 5 4 4 4 4 4 4 3 3 3 3 4 4 4 5 7 8 6 5 5 4 4 5 6 6 6 7 6 6 5 5 6 5 6 7 6 5
13 14 14 15 15 15 14 13 13 12 12 12 12 13 12 12 12 12 12 11 10 10 9 8 8 8 6 7 6 7 7 7 7 8 8 7 8 8 8 9 8 8 7 7 6 6 6 5 5 4 4 3 3 3 3 3 3 2 3 4 5 4 5 7 8 8 7 5 3 3 4 4 4 6 7 5 6 6 5 6 5 6 7 5 4
13 14 14 15 16 15 14 13 13 13 12 12 13 13 12 12 13 12 12 11 10 10 9 8 9 8 7 7 7 6 7 8 8 9 9 8 8 8 9 9 8 8 7 7 6 6 6 5 5 5 4 3 3 3 3 3 3 3 3 4 5 5 5 5 6 8 8 7 5 4 4 4 3 4 6 4 4 6 6 7 4 4 7 4 3
13 14 15 16 16 16 15 14 13 13 13 12 13 13 13 13 13 13 12 12 11 11 11 9 9 9 8 8 8 8 8 9 9 9 9 9 8 9 9 9 8 7 7 6 6 6 6 5 5 4 4 4 3 2 2 2 2 3 3 4 5 6 5 4 5 7 7 6 7 7 5 5 4 3 3 3 4 5 5 6 4 3 6 5 3
13 14 15 15 16 16 15 15 14 13 13 12 12 13 13 13 14 13 12 12 12 12 12 10 9 9 9 8 8 8 8 8 8 7 8 8 7 8 8 8 8 7 7 6 6 6 6 5 5 4 4 4 3 2 2 2 2 2 3 4 4 5 6 4 3 5 5 5 6 7 7 7 7 6 4 3 3 3 2 4 6 5 5 5 3
14 13 14 15 16 16 16 15 15 13 13 13 12 13 14 14 15 14 12 11 12 13 13 11 10 9 9 7 7 7 7 7 8 7 7 7 7 7 7 8 7 7 6 6 6 6 6 5 5 4 3 3 3 2 2 2 2 2 3 3 3 4 5 4 4 3 4 6 6 6 7 6 6 6 6 3 1 2 3 3 5 5 5 5 4
15 14 14 16 17 16 16 16 15 14 13 13 12 13 14 15 15 14 13 11 12 13 13 12 10 9 8 8 7 7 6 6 7 7 7 7 6 6 6 7 7 6 6 6 6 5 5 5 4 4 3 3 3 2 2 2 2 2 2 2 3 3 4 4 4 4 5 6 6 6 6 5 4 4 4 3 3 2 2 3 4 4 5 4 2
14 15 16 17 17 17 17 16 15 14 13 13 13 12 14 15 15 15 14 12 12 13 14 12 11 9 8 8 7 7 6 6 6 7 7 7 7 7 6 6 6 6 6 6 6 5 5 5 4 4 4 3 2 2 2 2 2 2 1 2 2 2 3 3 3 4 5 5 5 5 5 4 4 3 3 4 4 2 1 2 4 3 4 3 2
14 14 17 18 18 18 17 16 15 14 13 13 13 13 13 14 15 15 15 13 13 14 14 13 12 10 9 8 8 7 7 6 6 6 6 7 7 7 6 6 6 6 6 6 6 6 5 5 4 4 3 3 2 2 2 2 3 3 2 1 1 2 2 3 3 3 3 4 4 4 3 3 4 4 4 4 3 3 4 2 3 2 1 3 2
14 13 15 18 18 18 17 16 15 14 14 14 14 14 14 14 15 16 15 14 14 14 14 13 12 11 9 9 8 7 7 6 6 5 6 6 6 6 6 6 5 5 6 6 6 6 6 5 4 4 3 3 3 3 3 2 2 3 3 2 1 0 1 2 3 3 3 3 3 3 3 3 3 4 4 3 3 4 5 4 4 4 3 1 3
14 13 13 14 15 16 16 15 15 15 15 15 15 15 14 14 16 16 16 16 15 14 15 14 13 11 10 9 9 8 7 6 6 5 5 5 6 6 6 6 6 6 6 6 6 7 6 5 5 4 4 3 3 3 3 3 3 3 3 3 2 2 1 2 3 3 3 3 3 3 4 3 3 3 3 3 2 2 3 4 5 6 6 2 2
13 13 14 13 14 16 16 15 16 16 17 16 16 16 15 15 16 17 17 17 16 15 15 15 14 12 11 10 9 9 8 7 7 6 6 6 5 6 6 6 6 6 6 6 5 6 6 5 5 5 4 4 4 3 3 4 4 4 3 3 3 2 2 2 2 3 3 3 4 4 4 4 3 3 3 3 3 3 3 4 5 6 8 6 1
13 13 14 14 15 16 16 16 17 17 17 17 17 17 16 16 17 17 17 18 17 16 15 15 14 13 12 11 10 9 9 8 8 6 6 6 6 6 6 6 5 5 5 5 5 5 5 5 5 5 5 4 4 4 4 4 5 4 4 4 4 3 3 3 3 3 3 3 4 4 4 4 4 4 3 3 4 4 5 5 4 4 6 8 5
13 13 14 16 17 17 17 17 18 17 18 18 18 18 18 17 18 18 18 18 18 17 16 15 15 14 13 13 12 10 9 9 8 7 7 7 6 6 5 5 5 4 4 4 5 5 5 6 6 6 5 5 4 5 5 5 5 5 5 5 5 4 3 3 3 3 4 4 4 4 5 5 4 4 4 4 4 4 5 4 4 4 4 5 5
13 13 14 16 17 17 17 18 17 17 18 18 19 19 19 18 18 19 18 18 18 18 17 16 15 15 14 14 13 12 11 10 9 9 8 8 7 6 6 6 6 6 5 5 5 5 6 6 6 6 6 5 5 5 6 6 5 5 5 5 5 5 4 4 4 4 4 4 4 4 4 5 5 4 5 5 3 4 5 4 4 4 4 4 4
13 13 13 15 17 17 17 17 17 18 18 19 20 20 19 19 19 19 19 18 18 18 17 16 16 15 14 14 14 13 12 11 10 9 8 8 7 7 7 6 6 7 6 5 5 6 6 7 7 6 6 6 6 6 6 6 6 6 5 6 6 5 5 5 5 5 5 5 4 4 4 4 5 5 6 6 5 4 5 6 5 5 5 5 6
12 11 11 12 15 17 17 17 17 18 18 19 20 19 18 19 19 19 20 19 18 17 17 16 16 15 14 14 15 14 13 11 10 9 8 8 8 8 8 7 7 7 7 6 6 7 7 8 8 8 7 7 7 7 7 7 7 7 6 6 6 6 6 6 6 6 6 5 5 5 5 5 5 5 6 6 6 6 6 7 6 6 6 6 7
12 11 11 12 15 17 17 18 18 18 18 18 18 18 18 19 19 19 19 19 18 17 17 17 16 15 14 14 14 14 13 12 11 10 9 9 9 9 9 9 8 8 8 8 8 8 8 9 9 9 8 8 8 8 7 8 8 7 6 6 4 5 5 6 6 6 5 5 5 5 5 5 5 5 6 6 6 7 7 7 7 7 7 7 7
13 13 12 13 15 16 17 18 17 17 17 18 18 18 18 18 18 19 18 18 19 18 17 17 16 15 14 13 14 14 14 13 12 12 11 10 9 9 9 9 9 9 8 9 9 9 9 9 9 9 8 8 8 7 7 8 8 8 7 7 5 5 6 6 6 6 6 5 5 6 6 6 6 6 6 7 7 7 7 7 7 7 7 7 6
13 13 13 13 15 17 18 18 17 16 16 17 17 17 18 18 17 18 18 18 18 17 17 16 15 15 15 15 14 14 14 14 14 13 12 11 11 10 10 9 9 9 9 9 10 10 9 9 9 8 8 8 7 7 8 8 8 8 8 8 7 7 7 7 6 6 6 6 6 6 6 6 6 6 6 7 7 7 7 7 7 7 7 7 7
12 12 12 12 14 15 17 17 16 16 16 16 16 16 16 17 17 17 18 18 17 16 16 16 15 15 16 15 15 14 14 15 15 14 13 13 12 12 11 11 10 10 10 10 10 10 10 9 9 8 8 8 8 8 8 8 7 7 7 7 7 7 7 7 7 7 7 6 6 6 6 6 6 6 6 6 7 7 7 7 7 8 8 8 8
11 9 8 9 9 9 11 14 15 14 14 15 15 15 15 16 16 17 18 18 16 16 16 16 16 16 15 15 15 15 15 15 16 15 14 14 13 13 12 12 11 10 10 10 10 10 10 10 9 9 9 8 8 8 9 8 8 8 8 8 7 7 8 8 8 7 7 6 6 6 6 6 5 5 6 6 6 6 6 6 7 7 8 8 8
10 8 7 9 10 8 8 9 12 12 12 13 14 14 14 15 16 16 16 16 16 15 16 16 15 15 15 15 15 15 15 15 16 16 15 15 14 13 12 12 12 12 10 10 10 10 10 10 10 10 10 10 9 9 9 9 9 8 8 8 8 8 8 8 8 8 7 7 7 7 6 6 6 6 6 6 5 5 5 6 6 6 6 7 7
10 9 8 8 9 10 10 10 11 12 13 13 13 14 14 15 16 16 15 16 17 16 16 15 15 15 15 15 14 14 14 15 15 15 15 14 14 14 13 13 13 13 12 11 11 11 11 11 11 10 10 10 10 10 10 9 9 9 9 9 9 8 8 8 8 8 8 8 8 7 7 6 6 7 6 6 5 5 6 6 6 6 7 7 7
9 9 9 9 9 10 12 11 11 13 14 12 11 14 14 14 16 16 15 16 17 17 16 16 15 15 15 15 14 14 13 13 14 14 13 13 14 14 14 13 13 13 13 12 12 12 11 11 11 11 11 11 10 10 10 10 10 9 9 9 9 9 9 8 8 8 8 8 8 8 8 7 7 7 6 6 6 6 6 6 6 6 7 8 9
9 10 11 11 11 10 12 11 10 12 12 10 9 11 12 12 13 14 15 16 16 17 17 16 16 16 16 16 15 14 13 12 12 12 12 12 12 13 13 13 13 13 14 13 13 12 12 12 12 12 11 11 11 11 11 10 10 10 9 10 9 9 9 8 8 8 8 8 8 9 9 8 8 7 6 6 6 6 6 6 6 7 7 8 9
10 10 10 11 11 10 11 12 11 10 10 11 11 11 10 10 10 12 14 14 14 16 17 17 17 16 15 15 14 13 12 12 12 11 11 11 12 12 12 12 12 12 13 13 12 12 11 11 11 11 11 11 11 11 11 11 10 9 9 9 9 9 9 8 8 8 8 8 8 9 9 8 7 8 8 9 8 8 8 8 8 7 8 9 9
8 7 7 8 8 9 11 12 12 11 12 13 13 13 12 11 11 13 13 13 13 15 16 16 16 15 14 13 13 12 11 10 11 11 11 11 11 12 12 11 11 11 11 11 11 11 10 10 10 10 11 11 11 11 12 12 11 9 9 9 8 8 8 8 8 8 8 9 9 9 9 8 9 11 11 10 9 9 9 9 10 9 9 10 10
8 7 7 7 7 8 9 9 8 8 9 9 9 11 13 12 13 14 13 13 14 15 15 15 14 14 13 13 12 11 11 10 10 10 10 10 10 9 10 10 10 10 10 9 10 10 10 11 10 10 11 11 11 10 11 12 12 11 10 9 9 10 9 9 9 10 9 9 10 9 9 9 10 11 9 7 8 10 9 9 10 10 11 11 11
8 8 8 8 8 9 10 9 8 7 6 5 6 7 10 11 12 13 13 14 16 16 15 13 13 13 13 13 12 12 12 11 10 10 10 9 8 7 7 7 8 9 9 9 9 9 10 10 9 10 10 9 8 10 12 12 12 12 11 11 11 11 11 11 11 10 10 9 9 9 9 9 9 9 9 8 9 10 10 10 10 11 11 12 12
8 9 9 10 10 11 11 10 9 7 6 5 5 7 9 10 12 12 12 14 16 16 15 14 13 14 14 13 13 13 13 13 12 10 8 7 7 6 6 6 6 6 7 8 9 9 9 9 9 9 7 5 7 11 12 12 12 12 11 11 11 11 11 11 11 10 10 9 8 8 9 9 8 8 8 8 8 9 10 10 11 12 13 13 13
8 9 10 10 12 12 12 12 11 10 8 7 6 8 8 7 7 8 10 15 17 15 15 15 15 15 15 13 12 12 13 14 13 11 9 9 9 8 8 9 9 8 6 8 10 10 9 9 8 7 5 5 9 10 9 10 10 10 10 10 10 11 12 11 10 10 9 9 8 8 8 8 8 7 6 7 6 7 8 9 10 12 13 13 14
9 10 10 11 13 13 13 13 12 10 10 9 7 7 6 5 4 5 7 11 14 13 13 14 14 14 13 12 12 12 13 14 13 12 12 13 13 13 12 13 15 15 12 10 10 10 9 8 7 6 4 3 6 8 7 8 9 9 9 9 8 10 11 10 9 8 7 7 7 8 8 8 7 6 7 9 8 7 8 9 10 12 13 13 15
10 11 12 13 14 13 13 12 10 9 9 10 9 8 8 9 9 8 8 8 10 11 11 11 11 12 11 11 11 11 12 12 12 12 13 15 16 16 16 15 15 14 12 10 9 9 8 6 5 6 5 2 2 5 6 6 7 7 8 7 7 9 9 9 8 6 6 6 5 5 6 7 5 6 9 11 10 9 9 9 10 12 13 14 15
11 13 14 14 14 13 13 12 11 9 9 10 10 10 11 13 13 11 11 10 11 11 11 11 10 10 11 12 11 12 12 12 12 12 13 14 14 14 14 14 14 12 11 10 9 8 8 8 7 7 6 3 1 4 4 5 6 6 6 7 7 7 7 7 7 6 5 4 4 4 4 4 3 5 8 10 9 8 7 8 9 11 12 14 15
12 13 14 15 14 13 13 13 13 11 9 9 11 12 13 15 15 14 14 14 15 16 15 15 15 15 15 16 15 15 15 14 13 13 13 13 13 13 14 14 15 15 14 14 13 11 9 9 8 7 6 5 3 1 2 3 5 6 7 6 6 7 7 7 6 6 4 3 3 4 3 3 4 6 7 9 9 8 8 8 10 11 12 13 14
13 14 15 15 15 14 14 13 13 12 11 11 12 13 14 15 16 16 17 16 16 17 16 16 16 16 17 16 16 16 16 16 14 14 14 14 14 14 15 15 15 16 16 15 14 13 13 12 10 9 8 8 7 6 3 2 1 3 5 3 3 6 6 5 5 5 4 1 2 2 3 3 5 7 9 9 9 9 9 10 10 11 12 12 13
13 15 16 16 17 16 15 14 13 12 12 12 13 13 13 14 15 17 18 16 15 15 15 15 14 15 15 15 15 15 15 17 18 17 16 15 16 16 16 16 16 16 16 16 14 14 15 13 9 8 9 9 9 9 7 6 5 3 2 2 1 1 2 3 4 5 3 1 0 1 4 6 7 8 9 10 10 10 11 11 10 10 11 11 13
13 14 15 16 15 15 16 15 13 12 11 12 13 14 13 12 14 16 17 16 15 14 15 15 15 16 15 15 16 15 15 16 16 15 14 15 16 16 16 16 16 16 15 15 14 13 14 13 10 8 9 9 9 9 9 8 8 7 5 4 5 4 2 2 4 4 3 2 2 3 6 9 9 9 9 10 10 11 11 10 9 10 11 13 14
14 13 13 14 14 14 15 14 13 12 11 11 13 14 12 12 13 14 15 15 14 14 15 16 17 16 15 16 17 18 16 15 14 14 14 16 15 15 15 15 15 15 14 13 12 12 12 11 10 9 10 12 11 10 10 10 10 9 8 7 7 7 6 4 2 3 3 4 3 4 7 9 9 9 8 8 7 8 8 8 8 11 13 13 14
14 13 12 13 14 14 14 12 11 11 11 11 13 13 12 13 13 12 13 14 13 14 16 17 17 16 15 16 17 18 16 14 14 15 15 14 14 14 14 14 13 14 15 14 12 11 11 11 10 10 11 13 14 12 12 13 13 12 11 10 9 8 7 7 5 5 5 5 4 5 7 9 9 9 7 7 7 6 5 6 8 9 10 10 11
13 12 11 12 12 12 12 11 10 10 10 11 12 12 13 13 12 11 13 15 15 16 17 18 17 16 16 16 17 17 16 14 14 15 14 13 13 12 11 11 11 12 14 14 12 11 11 11 10 10 10 11 13 13 13 14 14 13 13 12 12 10 9 10 9 8 6 6 7 7 8 9 9 8 7 7 8 7 5 6 7 7 7 8 8
13 13 11 11 11 12 11 10 9 9 9 9 11 12 13 13 11 11 14 16 17 17 17 17 16 16 15 16 17 17 16 15 14 14 14 13 13 12 10 9 8 10 12 12 10 10 11 11 10 10 9 8 9 11 12 12 12 12 11 11 11 11 11 11 11 9 8 9 9 9 9 9 8 8 7 6 7 7 7 7 7 6 7 8 8
12 14 14 13 12 12 11 10 8 8 8 8 9 10 12 12 12 12 14 15 15 16 16 16 15 15 15 16 16 16 15 14 14 14 13 11 12 13 11 8 6 7 8 9 8 8 10 11 10 9 8 7 7 7 8 8 9 9 9 10 10 9 9 10 10 9 9 10 10 10 9 9 8 7 7 6 6 7 8 8 8 8 7 7 8
13 14 14 14 12 11 11 10 9 7 7 7 8 8 9 10 11 11 12 13 14 14 14 14 14 14 14 14 14 14 13 13 13 13 12 10 10 11 10 9 7 7 6 6 7 8 8 9 9 8 8 7 6 5 5 6 6 6 6 7 8 8 9 9 9 9 8 8 8 9 8 8 7 7 6 5 6 7 8 8 9 8 7 7 8
14 13 13 13 12 10 10 10 9 7 6 7 7 7 7 7 7 8 10 12 12 12 13 13 13 13 12 12 13 13 13 12 11 11 10 10 9 9 9 9 8 7 6 6 6 7 7 7 7 7 6 5 5 5 6 6 7 7 6 6 7 7 7 7 9 9 7 6 6 7 6 6 6 5 5 5 5 7 8 8 9 8 7 7 8
15 14 13 12 11 10 10 10 9 8 7 7 7 6 6 6 6 6 8 10 11 11 11 12 12 11 11 12 12 11 11 11 12 12 12 11 10 9 10 11 9 8 8 7 7 6 6 5 5 4 4 3 3 4 5 6 7 7 8 8 8 8 8 8 9 10 7 5 5 5 5 6 6 6 6 7 7 8 8 7 8 8 7 8 9
16 15 13 12 10 10 9 9 8 8 7 7 7 6 6 5 5 6 7 9 10 11 10 11 10 11 11 11 10 10 10 11 12 12 13 13 12 11 11 11 10 9 7 7 7 8 8 7 7 6 5 4 5 5 5 6 6 7 8 9 9 10 10 10 10 10 7 5 5 5 6 7 7 7 8 8 8 9 9 8 8 8 8 8 9
16 15 12 10 9 8 8 8 7 6 6 7 7 7 6 5 5 6 7 8 10 10 10 10 9 9 9 10 10 10 10 10 11 12 12 13 13 12 11 10 8 7 6 6 7 7 8 8 9 8 6 5 6 6 5 4 5 5 7 8 9 11 12 12 10 9 7 5 6 6 6 7 7 7 7 8 8 8 8 9 9 8 8 9 9
Wind_Direction
166 168 168 170 170 165 163 162 162 163 162 162 165 164 161 159 158 159 161 160 159 160 162 163 162 162 162 162 161 160 158 157 160 160 159 155 152 151 150 150 145 139 141 141 142 140 132 133 134 133 134 121 109 101 89 84 77 67 50 18 27 50 47 58 64 69 94 102 113 108 98 97 105 118 124 122 121 119 114 108 109 113 108 106 103
165 167 169 173 172 167 164 165 165 164 165 168 170 167 166 164 160 160 162 163 165 166 167 168 167 167 167 166 161 157 157 159 162 162 157 154 154 153 151 150 144 139 140 140 140 138 134 133 131 130 127 117 109 100 89 83 80 64 48 34 40 56 57 57 48 39 92 97 101 114 109 100 97 107 114 117 117 117 117 113 110 111 105 101 102
170 171 172 174 173 169 167 169 170 168 169 172 172 169 169 168 163 163 164 167 167 168 170 171 170 169 164 163 160 155 158 159 155 155 154 153 156 156 154 152 147 142 142 141 138 136 135 136 134 132 128 123 115 103 97 94 90 68 55 45 35 61 84 72 49 31 58 89 101 110 112 105 99 97 96 101 110 114 116 115 108 104 103 100 100
175 175 175 175 172 172 171 171 172 170 173 175 173 172 173 172 167 165 167 168 169 169 173 172 167 164 155 155 157 151 155 157 151 154 158 156 158 160 159 157 153 150 148 145 141 139 138 140 139 138 134 130 118 107 108 110 107 85 62 43 32 49 81 84 66 49 52 57 77 102 97 90 96 103 98 96 111 116 112 107 104 106 105 102 99
178 176 176 175 173 174 172 172 173 173 176 178 178 176 175 176 171 168 169 170 171 171 172 169 164 162 155 154 158 154 156 164 167 167 165 164 166 166 164 164 163 158 155 151 144 141 142 141 139 141 140 134 124 108 101 107 111 95 70 48 44 47 57 80 78 64 60 52 50 68 78 72 61 89 93 73 85 107 108 101 99 110 106 97 92
180 178 176 175 174 174 172 176 179 177 179 181 181 179 176 175 173 171 171 171 172 172 171 169 169 168 164 164 169 169 168 172 177 174 168 170 170 164 162 167 171 168 164 156 146 143 142 141 139 141 139 134 125 108 101 114 115 90 64 49 51 51 45 69 89 78 66 60 67 68 56 57 45 41 87 84 70 86 107 115 113 106 106 108 113
182 180 178 177 177 177 175 181 185 180 178 180 180 178 175 174 174 174 174 173 173 172 171 172 175 174 173 175 175 175 174 172 175 172 165 166 163 159 162 169 177 178 173 165 153 146 143 143 144 142 139 137 126 120 123 117 99 72 54 45 43 51 49 44 71 83 79 64 66 69 58 55 49 34 52 100 99 82 91 116 113 113 121 122 117
182 180 181 181 180 182 181 183 188 184 177 178 180 178 175 174 175 176 177 177 175 174 174 175 178 179 181 183 179 179 176 167 169 167 159 161 161 161 165 169 177 183 178 173 166 155 149 150 152 148 145 139 139 144 141 103 76 61 48 39 28 42 52 46 38 39 69 70 52 48 54 53 52 48 47 41 57 110 119 105 101 116 116 100 96
183 182 184 184 184 187 186 185 188 185 177 178 179 176 175 175 176 178 179 180 178 177 177 178 179 179 184 186 180 178 172 163 168 167 162 163 164 164 167 169 176 183 185 183 179 170 163 160 159 159 155 148 155 159 138 116 83 71 49 26 20 27 37 46 45 20 30 55 46 35 41 45 47 54 65 58 36 57 115 114 110 119 98 72 69
186 184 184 188 188 189 190 187 186 185 180 178 178 177 176 176 178 180 181 182 183 181 180 180 180 181 186 188 182 176 170 165 167 168 169 172 171 170 171 174 178 183 189 189 189 187 179 174 172 169 166 163 167 164 143 147 146 126 92 24 7 6 19 27 39 36 30 34 39 35 27 35 41 27 45 60 41 6 337 117 118 119 106 88 26
187 186 184 189 191 191 191 188 185 184 181 178 179 180 179 179 180 182 185 185 184 185 185 183 182 184 188 189 187 181 174 175 175 177 179 180 180 176 175 180 184 186 188 189 192 195 191 188 185 178 174 173 174 176 179 181 172 161 151 114 8 345 354 10 13 22 25 16 28 34 16 29 36 14 30 40 16 2 343 352 70 41 89 124 89
187 187 186 189 191 192 192 188 185 183 182 182 182 182 181 181 182 184 187 188 187 187 187 186 184 187 190 191 191 187 184 187 188 190 191 188 188 181 177 183 186 190 191 191 193 194 194 194 195 190 184 187 186 178 186 193 181 165 165 173 172 274 324 350 351 347 353 351 1 10 358 22 29 6 23 36 21 23 348 325 20 5 316 115 86
187 186 190 193 190 191 191 186 184 183 184 186 185 184 182 183 184 185 188 191 191 190 189 188 187 188 191 191 192 190 192 195 195 199 201 200 199 192 188 189 192 198 199 197 196 191 193 197 199 198 194 195 194 185 189 195 194 184 179 191 203 200 239 311 325 326 331 326 333 347 342 350 11 4 3 1 8 25 326 323 7 343 301 308 66
189 186 191 195 190 190 189 184 185 187 188 188 187 185 182 183 186 187 189 192 193 193 190 190 190 191 192 193 193 192 194 197 200 205 205 204 208 207 204 201 200 204 205 203 201 195 196 197 198 202 199 199 201 197 198 197 197 201 201 206 215 212 222 261 297 306 305 301 308 317 320 328 337 338 337 337 337 342 341 357 9 330 303 301 257
189 189 191 192 190 191 189 187 189 190 190 190 188 185 182 182 186 189 190 191 194 196 194 192 192 192 194 195 195 194 194 195 198 203 207 207 210 212 216 216 211 207 205 204 206 204 204 202 201 203 201 203 210 206 204 205 204 206 212 220 224 222 229 252 278 289 286 282 287 293 298 304 311 313 316 329 341 343 351 2 360 334 313 310 309
188 190 192 191 191 194 194 193 193 192 191 190 186 185 184 182 185 190 193 192 194 197 197 196 194 194 195 197 198 197 195 195 195 199 204 208 212 215 219 224 219 209 202 202 205 207 209 208 205 203 203 208 212 209 208 208 209 213 217 223 229 231 232 246 263 270 274 276 274 277 286 287 289 301 304 314 337 340 340 346 340 332 323 313 313
190 191 194 194 193 196 198 198 197 194 191 189 186 186 186 183 184 190 194 195 195 196 198 198 196 196 196 197 199 199 198 198 197 199 202 204 210 216 218 218 215 208 203 201 201 204 208 205 204 204 206 210 210 208 211 210 211 219 223 226 232 235 236 246 255 258 259 265 270 268 273 279 280 282 280 286 301 311 313 316 317 321 319 312 309
190 192 196 195 194 196 199 199 199 196 192 188 187 187 187 185 185 190 194 197 197 197 200 200 199 199 199 199 201 201 202 203 202 200 203 203 202 207 213 212 207 205 203 202 198 198 201 200 204 207 207 210 210 205 207 210 215 223 226 229 235 238 245 251 252 256 256 254 260 264 269 274 277 277 273 274 276 280 290 294 294 298 299 302 307
182 188 196 194 194 196 197 198 197 195 193 189 188 188 189 188 188 191 195 197 198 199 199 201 202 202 201 201 202 203 204 205 205 202 202 203 201 201 205 205 205 205 205 205 202 197 197 198 202 210 210 208 208 206 207 208 214 222 228 231 230 229 241 253 254 254 254 250 249 255 263 269 275 282 282 277 274 272 277 282 283 287 289 293 301
172 184 196 192 194 197 197 198 197 194 193 190 190 191 192 192 191 193 195 197 199 200 199 201 203 204 203 201 201 203 205 205 205 204 203 204 204 203 202 202 204 207 205 205 206 202 198 198 202 208 210 207 206 208 207 207 212 217 225 231 222 213 230 247 251 253 254 252 250 253 256 259 264 271 275 276 272 266 269 274 278 281 283 284 289
173 183 192 190 193 198 200 200 197 193 193 192 194 195 195 194 193 193 194 196 199 199 199 201 203 204 203 202 202 203 205 207 205 205 207 207 204 204 205 203 203 205 204 200 201 203 202 204 206 207 208 205 203 209 209 207 212 214 220 227 219 215 229 239 242 247 250 248 249 253 255 257 259 260 265 270 271 266 262 264 268 272 277 283 286
177 180 186 188 194 199 200 200 197 192 192 195 196 197 197 195 191 190 192 196 199 198 197 199 201 203 204 204 205 204 204 208 208 206 208 207 204 202 202 204 204 203 202 199 198 200 202 205 209 207 208 205 202 209 214 212 214 216 220 225 221 219 227 232 235 239 241 240 240 246 251 252 251 251 258 265 270 273 273 272 271 274 280 285 288
174 174 178 181 188 197 198 196 194 191 190 193 194 196 197 194 189 186 189 193 196 195 193 194 197 200 203 204 205 206 205 207 208 209 209 207 204 202 202 206 208 204 202 203 202 199 198 202 208 205 204 207 205 210 216 215 217 220 226 232 229 224 227 230 232 234 234 235 235 238 244 247 245 243 251 262 270 273 276 279 278 278 281 282 285
167 156 154 147 151 182 196 190 189 191 190 191 192 192 193 191 188 187 189 191 191 190 189 189 193 196 200 203 205 207 208 207 208 209 211 210 206 202 203 206 211 210 205 205 206 203 198 198 205 205 204 208 209 210 214 215 219 223 228 235 234 231 233 235 235 236 236 234 236 238 240 240 240 240 245 253 260 263 266 272 271 270 272 275 280
167 148 143 138 141 163 184 185 184 183 186 190 191 191 190 189 190 189 189 188 187 186 185 186 189 191 196 201 202 206 209 209 210 209 210 213 212 209 206 207 211 212 207 205 207 206 203 202 206 208 207 209 210 212 216 219 220 221 223 227 230 230 233 235 236 238 239 238 240 241 239 237 236 239 244 247 249 254 261 266 268 271 274 277 279
180 167 160 157 162 171 178 190 189 178 180 185 186 189 191 191 193 193 190 186 185 185 185 185 188 189 194 200 202 205 208 209 211 212 212 213 215 216 214 213 213 213 210 207 206 206 207 208 210 211 210 211 213 216 219 222 224 222 221 224 227 229 231 234 236 237 237 237 238 238 239 240 239 241 247 251 251 254 259 263 267 273 277 279 279
189 187 180 174 176 176 177 186 189 185 188 188 185 189 193 194 197 196 193 188 185 184 184 186 190 191 191 195 200 203 206 209 210 213 214 214 215 217 219 219 218 216 214 213 211 209 208 210 213 215 215 215 216 218 219 223 226 225 222 225 228 228 229 230 233 237 239 237 235 236 236 236 239 244 248 251 252 254 257 260 264 268 272 276 279
186 191 192 190 190 186 182 183 184 188 195 199 196 190 191 197 199 197 194 190 187 187 186 188 192 194 191 191 196 202 206 211 211 212 216 217 217 218 220 222 222 220 220 220 219 216 213 214 217 219 222 220 218 220 221 221 226 228 227 227 229 232 232 231 232 234 237 237 236 235 235 234 234 235 242 252 256 259 262 264 267 271 275 277 280
184 187 190 194 192 186 186 189 188 189 194 203 206 196 189 193 197 200 199 192 189 190 188 188 191 194 193 189 189 193 198 206 209 211 214 217 219 220 220 221 223 225 226 227 228 227 222 221 222 223 228 229 225 223 222 220 222 225 230 232 232 234 237 238 239 240 240 240 239 239 238 236 229 231 247 260 262 259 263 267 270 273 276 278 282
173 169 171 182 183 178 185 190 191 194 197 202 207 205 199 194 197 205 203 194 195 196 192 191 193 195 194 187 182 181 181 189 201 206 210 214 218 219 220 220 221 226 231 230 230 232 230 228 227 227 230 232 233 230 223 221 224 225 230 236 235 236 241 243 245 246 246 244 243 244 243 240 243 254 264 268 267 262 262 264 267 269 272 277 280
147 138 144 154 153 156 166 170 170 178 186 187 191 200 202 200 203 209 205 200 206 205 197 194 195 193 188 181 179 179 175 178 190 196 201 208 213 216 220 220 221 224 227 228 229 232 235 234 232 231 231 232 234 230 221 225 237 243 241 242 241 239 239 241 242 243 246 247 247 248 246 242 246 257 265 271 275 274 271 268 268 268 269 270 272
141 136 134 133 127 129 133 129 121 120 128 138 153 177 191 196 202 205 200 201 210 212 206 202 200 197 192 186 186 191 190 192 197 196 195 201 205 209 215 219 224 225 222 224 230 231 233 234 233 234 236 232 226 226 229 238 250 255 250 247 246 245 242 241 241 242 245 250 252 253 255 253 248 249 255 262 269 273 273 271 270 270 268 266 264
144 133 128 127 125 126 127 124 122 124 133 150 170 185 193 200 204 200 195 201 209 212 209 206 203 199 196 190 188 193 196 199 202 199 195 194 189 191 203 210 217 227 228 227 226 224 226 230 232 233 232 225 227 233 241 247 250 251 249 245 245 248 248 246 245 245 247 250 256 258 261 264 262 260 261 259 255 259 267 273 274 273 271 270 268
137 126 123 122 121 122 121 119 122 128 136 150 170 185 190 198 203 198 199 207 211 210 207 205 203 201 197 193 190 193 197 198 198 195 189 181 175 180 193 195 189 191 210 225 223 219 219 221 221 215 203 219 234 237 242 244 243 245 245 241 244 248 249 247 246 248 250 251 254 259 262 266 268 267 262 256 254 260 268 272 271 270 270 271 272
139 127 123 123 122 123 122 120 122 124 125 126 132 143 142 128 134 148 170 196 203 203 201 201 200 198 194 191 193 196 199 198 193 184 180 181 181 182 185 188 191 190 194 207 214 212 212 214 209 192 169 201 234 230 233 239 239 245 246 245 250 253 252 250 245 245 249 253 258 264 266 269 271 266 253 251 260 273 274 272 271 269 269 269 268
134 130 130 129 126 123 123 123 123 119 112 107 108 112 108 103 107 114 123 149 169 176 184 188 190 189 184 182 185 186 189 192 186 173 169 174 181 185 186 191 195 190 183 188 195 196 198 201 194 176 152 120 224 224 231 238 238 244 248 249 254 258 257 254 249 246 249 252 260 267 274 280 278 262 256 261 270 278 276 274 273 272 273 272 270
133 135 133 130 127 125 125 125 122 117 106 101 106 111 108 105 105 109 116 125 130 133 141 148 152 159 162 158 154 153 155 162 162 153 149 155 162 171 181 188 182 165 156 162 165 165 177 178 166 156 143 113 161 226 240 247 247 247 245 248 255 259 260 257 250 249 252 252 254 264 288 306 282 247 255 271 282 285 280 274 274 277 280 278 276
136 134 129 128 128 127 128 127 122 116 110 108 112 114 113 111 109 110 111 110 110 112 113 115 117 122 129 131 127 128 133 137 139 138 138 144 150 154 164 171 163 148 142 144 143 138 136 133 123 120 117 104 100 129 244 253 253 244 234 244 262 260 258 259 253 251 254 252 251 254 264 273 261 257 268 279 284 285 284 282 281 282 283 284 288
138 133 127 126 127 126 125 123 119 115 115 118 116 113 112 110 109 111 109 103 102 106 105 104 106 109 113 117 118 123 128 128 128 130 132 139 147 149 150 150 144 138 134 134 135 130 115 103 99 99 93 87 87 82 62 36 307 232 215 228 285 271 259 263 266 265 268 253 242 270 293 289 281 285 290 290 291 291 289 290 288 285 284 286 293
136 129 125 125 127 128 124 119 115 114 118 120 116 110 106 103 106 111 108 100 98 101 102 104 106 103 103 106 109 112 116 118 122 126 128 135 139 137 135 133 127 124 124 124 125 121 112 106 104 100 88 82 84 80 65 56 56 63 135 126 40 316 285 313 308 290 279 254 177 359 342 325 308 302 301 299 296 291 289 291 292 291 290 287 286
127 125 128 128 128 127 122 119 118 118 120 118 112 105 100 99 102 105 106 105 103 100 97 98 99 97 97 98 99 100 101 106 114 118 120 124 128 127 126 124 119 116 116 115 115 115 112 108 100 93 90 88 86 80 70 63 62 62 69 79 78 85 91 13 334 316 313 338 16 11 345 331 322 318 317 312 305 300 298 297 293 290 288 285 286
126 128 130 126 124 123 120 121 124 124 123 117 108 103 101 100 97 97 104 110 110 105 100 97 96 96 96 98 102 104 103 103 108 113 113 115 118 120 121 121 119 119 115 104 99 102 105 101 91 85 88 88 82 77 73 68 63 61 62 64 67 75 87 76 18 354 5 2 357 353 343 342 348 352 345 335 329 326 321 313 301 296 298 299 302
131 134 132 126 125 124 121 121 122 120 122 120 112 106 105 101 96 99 111 117 113 109 107 104 103 102 101 102 103 102 101 104 109 112 109 108 109 112 116 118 118 120 115 105 98 98 98 93 86 83 85 86 82 79 77 73 68 65 63 63 62 66 78 77 59 40 32 18 8 3 354 356 7 12 6 356 356 2 357 335 320 316 323 328 327
135 133 132 128 126 122 118 119 119 115 116 118 116 113 110 106 101 105 115 119 117 114 110 107 107 106 104 103 101 100 100 102 105 107 103 101 102 104 109 113 115 116 114 111 112 112 106 99 94 90 85 82 82 82 79 75 71 67 64 63 59 57 65 69 61 52 43 28 17 9 0 0 4 5 6 3 356 358 360 344 336 343 356 356 350
126 124 126 126 122 118 117 120 119 118 119 120 120 120 117 115 115 116 119 120 120 118 114 113 114 112 109 108 106 108 110 108 105 104 100 98 102 104 101 105 115 119 119 121 129 129 119 112 108 102 92 84 81 81 79 77 74 68 63 61 57 53 56 60 56 50 44 32 21 12 6 4 1 358 6 7 350 342 344 342 346 0 8 3 360
105 108 110 112 111 110 113 113 108 109 117 121 123 124 121 123 128 130 130 130 127 123 121 121 121 119 118 117 114 114 114 110 106 104 101 101 108 108 102 98 103 110 116 126 136 137 132 131 129 125 120 113 102 93 84 76 70 63 55 53 52 48 50 52 45 35 30 22 13 9 9 10 9 8 16 15 356 351 355 354 358 6 7 3 1
95 95 99 103 104 104 105 102 93 90 99 108 118 121 122 129 138 142 143 142 138 132 128 127 127 126 125 124 121 119 117 113 109 108 106 105 107 107 102 98 98 100 109 125 133 134 137 141 139 136 136 131 119 104 87 69 62 58 46 40 40 36 36 37 30 21 18 10 4 5 7 9 13 16 19 17 9 9 12 9 7 8 7 5 359
90 89 90 93 96 98 97 93 88 83 83 91 101 108 116 128 137 144 151 151 147 142 139 136 133 131 129 127 124 122 120 115 108 103 99 96 94 92 91 95 104 109 111 119 124 123 125 130 131 132 138 139 120 93 76 66 62 59 50 41 35 30 27 23 16 16 15 2 359 6 9 7 7 6 6 10 12 14 15 14 12 9 8 8 3
78 79 78 80 83 85 84 83 83 82 83 87 91 100 114 122 125 139 153 156 154 154 150 145 140 137 135 133 130 127 125 116 106 99 95 93 94 91 87 91 103 114 118 119 115 107 101 99 99 104 122 135 119 92 79 73 64 57 55 52 42 36 32 20 16 23 26 5 355 8 16 13 11 11 9 8 8 9 10 12 13 10 7 7 7
81 73 69 69 73 76 78 77 75 76 83 90 94 102 110 112 118 135 148 153 156 157 155 151 149 147 147 146 140 134 130 124 115 107 100 96 97 99 96 95 99 105 113 118 114 111 109 101 91 90 99 112 113 104 93 81 67 54 50 46 37 31 25 15 16 30 35 15 6 14 20 18 15 15 14 9 5 4 3 1 2 5 5 5 6
94 86 79 75 71 72 77 78 76 77 85 93 98 103 106 105 114 129 140 150 155 156 157 159 154 145 144 146 141 138 138 135 128 122 114 104 98 97 98 100 101 102 103 103 102 106 112 111 107 101 92 90 97 98 90 78 64 50 42 35 25 18 12 8 18 34 32 14 12 17 19 18 14 14 15 9 2 2 1 356 354 355 359 1 2